Location: Palomar Mountain Lodge
(33.3110°N, 116.8495°W)
Time: 01:09:38
(UTC-08:00)

ISS - Visible Passes

Search period start: 09 February 2026 00:00
Search period end: 19 February 2026 00:00
Orbit: 414 x 429 km, 51.6° (Epoch: 8 February)

Date Brightness Start Highest point End Pass type
(mag) Time Alt. Az. Time Alt. Az. Time Alt. Az.
9 Feb -1.1 05:44:52 10° S 05:47:29 21° SE 05:50:05 10° ENE visible
10 Feb -0.5 04:59:24 10° SSE 05:00:39 12° SE 05:01:54 10° ESE visible
11 Feb -3.8 05:46:49 10° SW 05:50:08 88° SE 05:53:28 10° NE visible
12 Feb -2.7 05:01:45 26° S 05:03:10 43° SE 05:06:21 10° ENE visible
13 Feb -0.9 04:17:34 18° E 04:17:34 18° E 04:18:56 10° ENE visible
13 Feb -2.6 05:50:37 13° W 05:52:58 26° NW 05:55:51 10° NNE visible
14 Feb -3.3 05:06:08 44° NNW 05:06:08 44° NNW 05:09:03 10° NE visible
15 Feb -0.9 04:21:26 15° NE 04:21:26 15° NE 04:22:05 10° NE visible
15 Feb -1.5 05:54:57 10° NW 05:56:01 11° NNW 05:57:03 10° N visible
16 Feb -1.6 05:09:34 15° NNW 05:09:34 15° NNW 05:10:55 10° N visible
